Time,TemperatureF,DewpointF,PressureIn,WindDirection,WindDirectionDegrees,WindSpeedMPH,WindSpeedGustMPH,Humidity,HourlyPrecipIn,Conditions,Clouds,dailyrainin,SolarRadiationWatts/m^2,SoftwareType,DateUTC
2013-06-11 00:01:00,65.4,63.9,29.76,North,5,6.9,6.9,95,0.00,RA,,0.00,0.0,WeatherDisplay:10.37,2013-06-11 04:01:00,
2013-06-11 00:03:00,65.4,63.9,29.76,NNW,337,5.8,5.8,95,0.00,RA,,0.00,0.0,WeatherDisplay:10.37,2013-06-11 04:03:00,
2013-06-11 00:08:00,65.3,63.8,29.75,North,360,6.9,6.9,95,0.00,RA,,0.00,0.0,WeatherDisplay:10.37,2013-06-11 04:08:00,
2013-06-11 00:13:00,65.1,63.6,29.76,NNW,327,5.8,5.8,95,0.00,CLR,,0.00,0.0,WeatherDisplay:10.37,2013-06-11 04:13:00,
2013-06-11 00:18:00,65.1,63.6,29.76,NNW,348,6.9,6.9,95,0.00,CLR,,0.00,0.0,WeatherDisplay:10.37,2013-06-11 04:18:00,
2013-06-11 00:23:00,65.0,63.8,29.76,North,355,8.1,8.1,96,0.00,CLR,,0.00,0.0,WeatherDisplay:10.37,2013-06-11 04:23:00,
2013-06-11 00:28:00,64.8,63.3,29.76,NNW,344,5.8,5.8,95,0.00,CLR,,0.00,0.0,WeatherDisplay:10.37,2013-06-11 04:28:00,
2013-06-11 00:33:00,64.7,63.2,29.76,NW,323,6.9,6.9,95,0.00,CLR,,0.00,0.0,WeatherDisplay:10.37,2013-06-11 04:33:00,
2013-06-11 00:38:00,64.7,63.2,29.76,NNW,344,6.9,6.9,95,0.00,CLR,,0.00,0.0,WeatherDisplay:10.37,2013-06-11 04:38:00,
2013-06-11 00:43:00,64.5,63.0,29.76,NNW,347,4.6,4.6,95,0.00,CLR,,0.00,0.0,WeatherDisplay:10.37,2013-06-11 04:43:00,
2013-06-11 00:48:00,64.3,62.8,29.76,North,355,4.6,4.6,95,0.00,CLR,,0.00,0.0,WeatherDisplay:10.37,2013-06-11 04:48:00,
2013-06-11 00:53:00,64.3,62.8,29.76,North,360,5.8,5.8,95,0.00,CLR,,0.00,0.0,WeatherDisplay:10.37,2013-06-11 04:53:00,
2013-06-11 00:58:00,64.1,62.6,29.76,NW,320,5.0,5.0,95,0.00,CLR,,0.00,0.0,WeatherDisplay:10.37,2013-06-11 04:58:00,
2013-06-11 01:03:00,64.0,62.5,29.76,NW,317,3.5,3.5,95,0.00,CLR,,0.00,0.0,WeatherDisplay:10.37,2013-06-11 05:03:00,
2013-06-11 01:08:00,63.8,62.3,29.76,NNW,348,6.9,6.9,95,0.00,CLR,,0.00,0.0,WeatherDisplay:10.37,2013-06-11 05:08:00,
2013-06-11 01:13:00,63.6,62.1,29.76,NNW,338,4.6,4.6,95,0.00,CLR,,0.00,0.0,WeatherDisplay:10.37,2013-06-11 05:13:00,
2013-06-11 01:18:00,63.5,62.0,29.76,NNW,329,6.9,6.9,95,0.00,CLR,,0.00,0.0,WeatherDisplay:10.37,2013-06-11 05:18:00,
2013-06-11 01:23:00,63.3,61.8,29.76,NW,317,4.6,4.6,95,0.00,CLR,,0.00,0.0,WeatherDisplay:10.37,2013-06-11 05:23:00,
2013-06-11 01:28:00,63.2,62.0,29.76,North,349,5.8,5.8,96,0.00,CLR,,0.00,0.0,WeatherDisplay:10.37,2013-06-11 05:28:00,
2013-06-11 01:33:00,63.1,61.9,29.76,NNW,336,9.2,9.2,96,0.00,CLR,,0.00,0.0,WeatherDisplay:10.37,2013-06-11 05:33:00,
2013-06-11 01:38:00,63.1,61.9,29.77,North,355,5.8,5.8,96,0.00,CLR,,0.00,0.0,WeatherDisplay:10.37,2013-06-11 05:38:00,
2013-06-11 01:43:00,63.1,61.9,29.77,NNW,346,3.5,3.5,96,0.00,CLR,,0.00,0.0,WeatherDisplay:10.37,2013-06-11 05:43:00,
2013-06-11 01:48:00,63.1,61.9,29.77,NNW,333,5.8,5.8,96,0.00,CLR,,0.00,0.0,WeatherDisplay:10.37,2013-06-11 05:48:00,
2013-06-11 01:53:00,63.1,61.9,29.77,North,355,5.0,5.0,96,0.00,CLR,,0.00,0.0,WeatherDisplay:10.37,2013-06-11 05:53:00,
2013-06-11 01:58:00,63.2,62.0,29.77,NNW,342,6.9,6.9,96,0.00,CLR,,0.00,0.0,WeatherDisplay:10.37,2013-06-11 05:58:00,
2013-06-11 02:03:00,63.1,61.9,29.77,NW,317,4.6,4.6,96,0.00,CLR,,0.00,0.0,WeatherDisplay:10.37,2013-06-11 06:03:00,
2013-06-11 02:08:00,63.1,61.9,29.77,NNW,344,5.8,5.8,96,0.00,CLR,,0.00,0.0,WeatherDisplay:10.37,2013-06-11 06:08:00,
2013-06-11 02:13:00,63.0,61.8,29.77,North,355,4.0,4.0,96,0.00,CLR,,0.00,0.0,WeatherDisplay:10.37,2013-06-11 06:13:00,
2013-06-11 02:18:00,63.0,61.8,29.76,North,355,5.8,5.8,96,0.00,CLR,,0.00,0.0,WeatherDisplay:10.37,2013-06-11 06:18:00,
2013-06-11 02:23:00,63.0,61.8,29.77,NNW,339,6.9,6.9,96,0.00,CLR,,0.00,0.0,WeatherDisplay:10.37,2013-06-11 06:23:00,
2013-06-11 02:28:00,62.9,61.7,29.77,NNW,348,3.5,3.5,96,0.00,CLR,,0.00,0.0,WeatherDisplay:10.37,2013-06-11 06:28:00,
2013-06-11 02:33:00,62.9,61.7,29.76,NNW,340,6.0,6.0,96,0.00,CLR,,0.00,0.0,WeatherDisplay:10.37,2013-06-11 06:33:00,
2013-06-11 02:38:00,62.9,61.7,29.77,North,355,3.5,3.5,96,0.00,CLR,,0.00,0.0,WeatherDisplay:10.37,2013-06-11 06:38:00,
2013-06-11 02:43:00,62.8,61.6,29.77,NNW,347,6.0,6.0,96,0.00,CLR,,0.00,0.0,WeatherDisplay:10.37,2013-06-11 06:43:00,
2013-06-11 02:48:00,62.7,61.5,29.77,North,355,4.6,4.6,96,0.00,CLR,,0.00,0.0,WeatherDisplay:10.37,2013-06-11 06:48:00,
2013-06-11 02:53:00,62.7,61.5,29.77,NNW,342,5.0,5.0,96,0.00,CLR,,0.00,0.0,WeatherDisplay:10.37,2013-06-11 06:53:00,
2013-06-11 02:58:00,62.7,61.5,29.77,North,5,3.5,3.5,96,0.00,CLR,,0.00,0.0,WeatherDisplay:10.37,2013-06-11 06:58:00,
2013-06-11 03:03:00,62.6,61.4,29.77,NW,316,9.2,9.2,96,0.00,CLR,,0.00,0.0,WeatherDisplay:10.37,2013-06-11 07:03:00,
2013-06-11 03:08:00,62.5,61.3,29.78,North,355,5.8,5.8,96,0.00,CLR,,0.00,0.0,WeatherDisplay:10.37,2013-06-11 07:08:00,
2013-06-11 03:13:00,62.4,61.2,29.78,NNW,331,8.1,8.1,96,0.00,CLR,,0.00,0.0,WeatherDisplay:10.37,2013-06-11 07:13:00,
2013-06-11 03:18:00,62.3,61.1,29.78,NNW,340,3.5,3.5,96,0.00,CLR,,0.00,0.0,WeatherDisplay:10.37,2013-06-11 07:18:00,
2013-06-11 03:23:00,62.2,61.0,29.78,NNW,346,3.5,3.5,96,0.00,CLR,,0.00,0.0,WeatherDisplay:10.37,2013-06-11 07:23:00,
2013-06-11 03:28:00,62.2,61.0,29.78,NNW,348,5.8,5.8,96,0.00,CLR,,0.00,0.0,WeatherDisplay:10.37,2013-06-11 07:28:00,
2013-06-11 03:33:00,62.1,60.9,29.78,NW,315,9.0,9.0,96,0.00,CLR,,0.00,0.0,WeatherDisplay:10.37,2013-06-11 07:33:00,
2013-06-11 03:38:00,62.1,60.9,29.79,NNW,336,5.0,5.0,96,0.00,CLR,,0.00,0.0,WeatherDisplay:10.37,2013-06-11 07:38:00,
2013-06-11 03:43:00,62.1,60.9,29.79,NW,315,4.6,4.6,96,0.00,CLR,,0.00,0.0,WeatherDisplay:10.37,2013-06-11 07:43:00,
2013-06-11 03:48:00,62.0,60.8,29.79,NW,307,5.8,5.8,96,0.00,CLR,,0.00,0.0,WeatherDisplay:10.37,2013-06-11 07:48:00,
2013-06-11 03:53:00,62.1,61.2,29.79,NW,313,4.6,4.6,97,0.00,CLR,,0.00,0.0,WeatherDisplay:10.37,2013-06-11 07:53:00,
2013-06-11 03:58:00,62.1,61.2,29.79,NW,318,3.5,3.5,97,0.00,CLR,,0.00,0.0,WeatherDisplay:10.37,2013-06-11 07:58:00,
2013-06-11 04:03:00,62.1,61.2,29.79,NNW,335,4.6,4.6,97,0.00,CLR,,0.00,0.0,WeatherDisplay:10.37,2013-06-11 08:03:00,
2013-06-11 04:08:00,62.1,61.2,29.78,NW,320,3.5,3.5,97,0.00,CLR,,0.00,0.0,WeatherDisplay:10.37,2013-06-11 08:08:00,
2013-06-11 04:13:00,62.1,61.2,29.78,NNW,327,3.5,3.5,97,0.00,CLR,,0.00,0.0,WeatherDisplay:10.37,2013-06-11 08:13:00,
2013-06-11 04:18:00,62.1,61.2,29.78,NNW,340,7.0,7.0,97,0.00,CLR,,0.00,0.0,WeatherDisplay:10.37,2013-06-11 08:18:00,
2013-06-11 04:23:00,62.0,61.1,29.78,NW,325,4.6,4.6,97,0.00,CLR,,0.00,0.0,WeatherDisplay:10.37,2013-06-11 08:23:00,
2013-06-11 04:28:00,62.1,61.2,29.78,NNW,330,4.6,4.6,97,0.00,CLR,,0.00,0.0,WeatherDisplay:10.37,2013-06-11 08:28:00,
2013-06-11 04:33:00,62.0,61.1,29.78,NNW,330,2.3,2.3,97,0.00,CLR,,0.00,0.0,WeatherDisplay:10.37,2013-06-11 08:33:00,
2013-06-11 04:38:00,62.1,61.2,29.78,NNW,330,2.3,2.3,97,0.00,CLR,,0.00,0.0,WeatherDisplay:10.37,2013-06-11 08:38:00,
2013-06-11 04:43:00,62.1,61.2,29.79,NW,315,3.5,3.5,97,0.00,CLR,,0.00,0.0,WeatherDisplay:10.37,2013-06-11 08:43:00,
2013-06-11 04:48:00,62.1,61.2,29.78,NW,323,4.0,4.0,97,0.00,CLR,,0.00,0.0,WeatherDisplay:10.37,2013-06-11 08:48:00,
2013-06-11 04:53:00,62.1,61.2,29.79,NW,304,3.5,3.5,97,0.00,CLR,,0.00,0.0,WeatherDisplay:10.37,2013-06-11 08:53:00,
2013-06-11 04:58:00,62.1,61.2,29.79,WNW,286,6.0,6.0,97,0.00,CLR,,0.00,0.0,WeatherDisplay:10.37,2013-06-11 08:58:00,
2013-06-11 05:03:00,62.2,61.3,29.79,WNW,302,3.5,3.5,97,0.00,CLR,,0.00,0.0,WeatherDisplay:10.37,2013-06-11 09:03:00,
2013-06-11 05:08:00,62.2,61.3,29.79,NW,306,4.0,4.0,97,0.00,CLR,,0.00,0.0,WeatherDisplay:10.37,2013-06-11 09:08:00,
2013-06-11 05:13:00,62.2,61.3,29.80,NW,316,3.5,3.5,97,0.00,CLR,,0.00,0.0,WeatherDisplay:10.37,2013-06-11 09:13:00,
2013-06-11 05:18:00,62.2,61.3,29.80,NW,311,4.6,4.6,97,0.00,CLR,,0.00,0.0,WeatherDisplay:10.37,2013-06-11 09:18:00,
2013-06-11 05:23:00,62.2,61.3,29.80,WNW,285,3.5,3.5,97,0.00,CLR,,0.00,0.0,WeatherDisplay:10.37,2013-06-11 09:23:00,
2013-06-11 05:28:00,62.2,61.3,29.80,WNW,301,3.5,3.5,97,0.00,CLR,,0.00,0.0,WeatherDisplay:10.37,2013-06-11 09:28:00,
2013-06-11 05:33:00,62.2,61.3,29.80,WNW,301,2.3,2.3,97,0.00,CLR,,0.00,0.0,WeatherDisplay:10.37,2013-06-11 09:33:00,
2013-06-11 05:38:00,62.2,61.3,29.80,WNW,288,3.0,3.0,97,0.00,CLR,,0.00,0.0,WeatherDisplay:10.37,2013-06-11 09:38:00,
2013-06-11 05:43:00,62.3,61.4,29.80,WNW,288,3.5,3.5,97,0.00,CLR,,0.00,0.0,WeatherDisplay:10.37,2013-06-11 09:43:00,
2013-06-11 05:48:00,62.3,61.4,29.80,WNW,288,1.1,1.1,97,0.00,CLR,,0.00,0.0,WeatherDisplay:10.37,2013-06-11 09:48:00,
2013-06-11 05:53:00,62.3,61.4,29.80,WNW,288,3.5,3.5,97,0.00,CLR,,0.00,0.0,WeatherDisplay:10.37,2013-06-11 09:53:00,
2013-06-11 05:58:00,62.3,61.4,29.80,West,273,2.3,2.3,97,0.00,CLR,,0.00,0.0,WeatherDisplay:10.37,2013-06-11 09:58:00,
2013-06-11 06:03:00,62.3,61.4,29.80,West,266,2.3,2.3,97,0.00,CLR,,0.00,0.0,WeatherDisplay:10.37,2013-06-11 10:03:00,
2013-06-11 06:08:00,62.3,61.4,29.81,WNW,288,3.5,3.5,97,0.00,CLR,,0.00,0.0,WeatherDisplay:10.37,2013-06-11 10:08:00,
2013-06-11 06:13:00,62.4,61.5,29.81,WNW,288,1.1,1.1,97,0.00,CLR,,0.00,7.0,WeatherDisplay:10.37,2013-06-11 10:13:00,
2013-06-11 06:18:00,62.5,61.6,29.81,West,280,3.5,3.5,97,0.00,CLR,,0.00,9.0,WeatherDisplay:10.37,2013-06-11 10:18:00,
2013-06-11 06:23:00,62.5,61.6,29.81,West,280,3.5,3.5,97,0.00,CLR,,0.00,7.0,WeatherDisplay:10.37,2013-06-11 10:23:00,
2013-06-11 06:28:00,62.6,61.7,29.82,West,278,3.5,3.5,97,0.00,CLR,,0.00,9.0,WeatherDisplay:10.37,2013-06-11 10:28:00,
2013-06-11 06:33:00,62.7,61.8,29.82,West,267,3.5,3.5,97,0.00,CLR,,0.00,9.0,WeatherDisplay:10.37,2013-06-11 10:33:00,
2013-06-11 06:38:00,62.7,62.1,29.82,NW,311,3.0,3.0,98,0.00,CLR,,0.00,11.0,WeatherDisplay:10.37,2013-06-11 10:38:00,
2013-06-11 06:43:00,62.8,62.2,29.82,NW,307,3.5,3.5,98,0.00,CLR,,0.00,11.0,WeatherDisplay:10.37,2013-06-11 10:43:00,
2013-06-11 06:48:00,62.8,62.2,29.82,NW,315,3.5,3.5,98,0.00,CLR,,0.00,12.0,WeatherDisplay:10.37,2013-06-11 10:48:00,
2013-06-11 06:53:00,62.8,62.2,29.82,WNW,300,3.5,3.5,98,0.00,CLR,,0.00,14.0,WeatherDisplay:10.37,2013-06-11 10:53:00,
2013-06-11 06:58:00,62.9,62.3,29.83,NW,312,2.3,2.3,98,0.00,CLR,,0.00,16.0,WeatherDisplay:10.37,2013-06-11 10:58:00,
2013-06-11 07:03:00,62.9,62.3,29.83,WNW,295,4.6,4.6,98,0.00,OVC,,0.00,16.0,WeatherDisplay:10.37,2013-06-11 11:03:00,
2013-06-11 07:08:00,62.9,62.3,29.83,NW,313,2.3,2.3,98,0.00,OVC,,0.00,23.0,WeatherDisplay:10.37,2013-06-11 11:08:00,
2013-06-11 07:13:00,62.9,62.3,29.83,WNW,302,3.5,3.5,98,0.00,OVC,,0.00,25.0,WeatherDisplay:10.37,2013-06-11 11:13:00,
2013-06-11 07:18:00,63.0,62.4,29.83,WNW,287,2.3,2.3,98,0.00,OVC,,0.00,28.0,WeatherDisplay:10.37,2013-06-11 11:18:00,
2013-06-11 07:23:00,63.1,62.5,29.83,WNW,287,3.5,3.5,98,0.00,OVC,,0.00,35.0,WeatherDisplay:10.37,2013-06-11 11:23:00,
2013-06-11 07:28:00,63.2,62.6,29.83,WNW,284,2.3,2.3,98,0.00,OVC,,0.00,42.0,WeatherDisplay:10.37,2013-06-11 11:28:00,
2013-06-11 07:33:00,63.3,62.7,29.83,NW,314,3.5,3.5,98,0.00,OVC,,0.00,46.0,WeatherDisplay:10.37,2013-06-11 11:33:00,
2013-06-11 07:38:00,63.4,62.8,29.83,WNW,294,3.5,3.5,98,0.00,OVC,,0.00,40.0,WeatherDisplay:10.37,2013-06-11 11:38:00,
2013-06-11 07:44:00,63.4,62.8,29.83,NW,319,2.0,2.0,98,0.00,OVC,,0.00,39.0,WeatherDisplay:10.37,2013-06-11 11:44:00,
2013-06-11 07:49:00,63.5,62.9,29.83,WNW,286,4.0,4.0,98,0.00,OVC,,0.00,49.0,WeatherDisplay:10.37,2013-06-11 11:49:00,
2013-06-11 07:54:00,63.6,63.0,29.83,West,261,2.3,0.0,98,0.00,OVC,,0.00,54.0,WeatherDisplay:10.37,2013-06-11 11:54:00,
2013-06-11 07:59:00,63.7,63.1,29.83,West,261,3.5,3.5,98,0.00,OVC,,0.00,72.0,WeatherDisplay:10.37,2013-06-11 11:59:00,
2013-06-11 08:04:00,63.8,63.2,29.83,WNW,285,3.5,3.5,98,0.00,OVC,,0.00,62.0,WeatherDisplay:10.37,2013-06-11 12:04:00,
2013-06-11 08:09:00,63.8,63.2,29.83,WNW,284,2.3,2.3,98,0.00,OVC,,0.00,77.0,WeatherDisplay:10.37,2013-06-11 12:09:00,
2013-06-11 08:14:00,64.0,63.4,29.83,NW,321,4.0,4.0,98,0.00,OVC,,0.00,81.0,WeatherDisplay:10.37,2013-06-11 12:14:00,
2013-06-11 08:19:00,64.0,63.4,29.84,WNW,301,2.0,2.0,98,0.00,OVC,,0.00,63.0,WeatherDisplay:10.37,2013-06-11 12:19:00,
2013-06-11 08:24:00,64.1,63.5,29.84,WNW,301,3.5,3.5,98,0.00,OVC,,0.00,49.0,WeatherDisplay:10.37,2013-06-11 12:24:00,
2013-06-11 08:29:00,64.1,63.5,29.84,West,275,4.6,4.6,98,0.00,OVC,,0.00,54.0,WeatherDisplay:10.37,2013-06-11 12:29:00,
2013-06-11 08:34:00,64.2,63.6,29.84,NW,307,5.0,5.0,98,0.00,OVC,,0.00,81.0,WeatherDisplay:10.37,2013-06-11 12:34:00,
2013-06-11 08:39:00,64.3,63.4,29.84,NW,313,5.8,5.8,97,0.00,OVC,,0.00,62.0,WeatherDisplay:10.37,2013-06-11 12:39:00,
2013-06-11 08:44:00,64.3,63.4,29.84,NW,304,4.6,4.6,97,0.00,OVC,,0.00,49.0,WeatherDisplay:10.37,2013-06-11 12:44:00,
2013-06-11 08:49:00,64.3,63.4,29.85,West,264,10.4,10.4,97,0.00,OVC,,0.00,51.0,WeatherDisplay:10.37,2013-06-11 12:49:00,
2013-06-11 08:54:00,64.4,63.5,29.84,WNW,303,3.5,3.5,97,0.00,OVC,,0.00,113.0,WeatherDisplay:10.37,2013-06-11 12:54:00,
2013-06-11 08:59:00,64.6,63.7,29.84,NNW,332,5.8,5.8,97,0.00,OVC,,0.00,179.0,WeatherDisplay:10.37,2013-06-11 12:59:00,
2013-06-11 09:04:00,64.8,63.9,29.84,WNW,300,4.0,4.0,97,0.00,OVC,,0.00,211.0,WeatherDisplay:10.37,2013-06-11 13:04:00,
2013-06-11 09:09:00,65.1,64.2,29.84,West,279,3.5,3.5,97,0.00,OVC,,0.00,206.0,WeatherDisplay:10.37,2013-06-11 13:09:00,
2013-06-11 09:14:00,65.3,64.4,29.84,NW,315,3.5,3.5,97,0.00,OVC,,0.00,214.0,WeatherDisplay:10.37,2013-06-11 13:14:00,
2013-06-11 09:19:00,65.6,64.4,29.84,WNW,286,8.0,8.0,96,0.00,OVC,,0.00,221.0,WeatherDisplay:10.37,2013-06-11 13:19:00,
2013-06-11 09:24:00,65.9,64.7,29.84,NW,315,7.0,7.0,96,0.00,OVC,,0.00,135.0,WeatherDisplay:10.37,2013-06-11 13:24:00,
2013-06-11 09:29:00,66.1,64.6,29.84,WNW,287,6.9,6.9,95,0.00,OVC,,0.00,204.0,WeatherDisplay:10.37,2013-06-11 13:29:00,
2013-06-11 09:34:00,66.4,64.6,29.84,NW,311,5.0,5.0,94,0.00,OVC,,0.00,422.0,WeatherDisplay:10.37,2013-06-11 13:34:00,
2013-06-11 09:39:00,66.8,65.0,29.84,West,277,6.9,6.9,94,0.00,OVC,,0.00,223.0,WeatherDisplay:10.37,2013-06-11 13:39:00,
2013-06-11 09:44:00,67.0,64.6,29.85,WSW,256,8.1,8.1,92,0.00,OVC,,0.00,248.0,WeatherDisplay:10.37,2013-06-11 13:44:00,
2013-06-11 09:49:00,67.3,64.9,29.85,NNW,345,4.0,4.0,92,0.00,OVC,,0.00,236.0,WeatherDisplay:10.37,2013-06-11 13:49:00,
2013-06-11 09:54:00,67.5,64.5,29.85,WNW,294,9.2,9.2,90,0.00,OVC,,0.00,111.0,WeatherDisplay:10.37,2013-06-11 13:54:00,
2013-06-11 09:59:00,67.4,64.0,29.85,WNW,288,5.0,5.0,89,0.00,OVC,,0.00,592.0,WeatherDisplay:10.37,2013-06-11 13:59:00,
2013-06-11 10:04:00,67.9,64.9,29.85,West,265,4.6,4.6,90,0.00,OVC,,0.00,207.0,WeatherDisplay:10.37,2013-06-11 14:04:00,
2013-06-11 10:09:00,68.7,65.0,29.84,North,5,7.0,7.0,88,0.00,OVC,,0.00,670.0,WeatherDisplay:10.37,2013-06-11 14:09:00,
2013-06-11 10:14:00,69.6,65.2,29.84,WNW,284,10.4,10.4,86,0.00,OVC,,0.00,744.0,WeatherDisplay:10.37,2013-06-11 14:14:00,
2013-06-11 10:19:00,69.4,64.4,29.84,WNW,294,10.0,10.0,84,0.00,OVC,,0.00,193.0,WeatherDisplay:10.37,2013-06-11 14:19:00,
2013-06-11 10:24:00,68.9,64.5,29.85,WSW,244,10.4,10.4,86,0.00,OVC,,0.00,244.0,WeatherDisplay:10.37,2013-06-11 14:24:00,
2013-06-11 10:29:00,68.9,64.9,29.84,West,265,6.9,6.9,87,0.00,OVC,,0.00,251.0,WeatherDisplay:10.37,2013-06-11 14:29:00,
2013-06-11 10:34:00,69.3,64.9,29.85,West,259,5.8,5.8,86,0.00,OVC,,0.00,624.0,WeatherDisplay:10.37,2013-06-11 14:34:00,
2013-06-11 10:39:00,69.6,64.5,29.85,NNW,327,10.4,10.4,84,0.00,OVC,,0.00,294.0,WeatherDisplay:10.37,2013-06-11 14:39:00,
2013-06-11 10:44:00,69.4,64.4,29.86,West,278,11.5,11.5,84,0.00,OVC,,0.00,253.0,WeatherDisplay:10.37,2013-06-11 14:44:00,
2013-06-11 10:49:00,69.3,64.6,29.85,NNW,327,9.2,9.2,85,0.00,OVC,,0.00,315.0,WeatherDisplay:10.37,2013-06-11 14:49:00,
2013-06-11 10:54:00,70.1,65.4,29.85,WNW,291,8.1,8.1,85,0.00,OVC,,0.00,847.0,WeatherDisplay:10.37,2013-06-11 14:54:00,
2013-06-11 10:59:00,70.3,65.2,29.85,NW,310,11.5,11.5,84,0.00,CLR,,0.00,299.0,WeatherDisplay:10.37,2013-06-11 14:59:00,
2013-06-11 11:04:00,70.3,64.9,29.85,WNW,287,10.4,10.4,83,0.00,CLR,,0.00,355.0,WeatherDisplay:10.37,2013-06-11 15:04:00,
2013-06-11 11:09:00,70.3,64.5,29.85,WNW,302,11.5,11.5,82,0.00,CLR,,0.00,364.0,WeatherDisplay:10.37,2013-06-11 15:09:00,
2013-06-11 11:14:00,70.6,64.8,29.85,NW,311,10.4,10.4,82,0.00,CLR,,0.00,287.0,WeatherDisplay:10.37,2013-06-11 15:14:00,
2013-06-11 11:19:00,70.5,64.7,29.85,West,271,11.5,11.5,82,0.00,CLR,,0.00,272.0,WeatherDisplay:10.37,2013-06-11 15:19:00,
2013-06-11 11:24:00,70.9,64.8,29.85,WSW,239,9.2,9.2,81,0.00,CLR,,0.00,912.0,WeatherDisplay:10.37,2013-06-11 15:24:00,
2013-06-11 11:29:00,71.3,64.8,29.85,NNW,333,10.4,10.4,80,0.00,CLR,,0.00,951.0,WeatherDisplay:10.37,2013-06-11 15:29:00,
2013-06-11 11:34:00,71.4,64.9,29.85,WNW,295,8.1,8.1,80,0.00,CLR,,0.00,301.0,WeatherDisplay:10.37,2013-06-11 15:34:00,
2013-06-11 11:39:00,71.7,65.6,29.86,NW,323,6.9,6.9,81,0.00,CLR,,0.00,1005.0,WeatherDisplay:10.37,2013-06-11 15:39:00,
2013-06-11 11:44:00,72.0,64.8,29.85,NNW,331,9.2,9.2,78,0.00,CLR,,0.00,559.0,WeatherDisplay:10.37,2013-06-11 15:44:00,
2013-06-11 11:49:00,71.7,64.1,29.86,WNW,300,12.0,12.0,77,0.00,CLR,,0.00,232.0,WeatherDisplay:10.37,2013-06-11 15:49:00,
2013-06-11 11:54:00,71.3,64.8,29.86,NW,317,8.1,8.1,80,0.00,CLR,,0.00,434.0,WeatherDisplay:10.37,2013-06-11 15:54:00,
2013-06-11 11:59:00,71.5,64.6,29.86,NW,310,11.5,11.5,79,0.00,CLR,,0.00,599.0,WeatherDisplay:10.37,2013-06-11 15:59:00,
2013-06-11 12:04:00,72.0,65.1,29.86,NW,322,11.5,11.5,79,0.00,CLR,,0.00,283.0,WeatherDisplay:10.37,2013-06-11 16:04:00,
2013-06-11 12:09:00,72.0,64.8,29.86,West,266,8.1,8.1,78,0.00,CLR,,0.00,1018.0,WeatherDisplay:10.37,2013-06-11 16:09:00,
2013-06-11 12:14:00,72.1,65.2,29.86,North,355,11.5,11.5,79,0.00,CLR,,0.00,902.0,WeatherDisplay:10.37,2013-06-11 16:14:00,
2013-06-11 12:19:00,72.6,65.3,29.86,NW,309,9.2,9.2,78,0.00,CLR,,0.00,998.0,WeatherDisplay:10.37,2013-06-11 16:19:00,
2013-06-11 12:24:00,72.5,64.5,29.86,NW,322,11.5,11.5,76,0.00,CLR,,0.00,278.0,WeatherDisplay:10.37,2013-06-11 16:24:00,
2013-06-11 12:29:00,72.6,65.0,29.86,WSW,238,8.1,8.1,77,0.00,CLR,,0.00,972.0,WeatherDisplay:10.37,2013-06-11 16:29:00,
2013-06-11 12:34:00,72.8,65.2,29.86,West,264,10.4,10.4,77,0.00,CLR,,0.00,264.0,WeatherDisplay:10.37,2013-06-11 16:34:00,
2013-06-11 12:39:00,73.2,65.2,29.86,NW,311,14.0,14.0,76,0.00,CLR,,0.00,243.0,WeatherDisplay:10.37,2013-06-11 16:39:00,
2013-06-11 12:44:00,73.3,66.0,29.86,NNW,342,9.2,9.2,78,0.00,CLR,,0.00,1013.0,WeatherDisplay:10.37,2013-06-11 16:44:00,
2013-06-11 12:49:00,73.7,65.3,29.86,West,277,8.1,8.1,75,0.00,CLR,,0.00,1074.0,WeatherDisplay:10.37,2013-06-11 16:49:00,
2013-06-11 12:54:00,73.5,65.1,29.86,WNW,291,9.2,9.2,75,0.00,CLR,,0.00,264.0,WeatherDisplay:10.37,2013-06-11 16:54:00,
2013-06-11 12:59:00,73.6,65.2,29.86,North,9,11.5,11.5,75,0.00,CLR,,0.00,341.0,WeatherDisplay:10.37,2013-06-11 16:59:00,
2013-06-11 13:04:00,74.0,65.6,29.86,NNW,332,8.1,8.1,75,0.00,CLR,,0.00,341.0,WeatherDisplay:10.37,2013-06-11 17:04:00,
2013-06-11 13:09:00,74.4,65.6,29.86,North,9,17.3,17.3,74,0.00,CLR,,0.00,1025.0,WeatherDisplay:10.37,2013-06-11 17:09:00,
2013-06-11 13:14:00,74.5,66.1,29.86,NW,323,11.5,11.5,75,0.00,CLR,,0.00,939.0,WeatherDisplay:10.37,2013-06-11 17:14:00,
2013-06-11 13:19:00,74.5,65.3,29.86,NW,309,13.8,13.8,73,0.00,CLR,,0.00,691.0,WeatherDisplay:10.37,2013-06-11 17:19:00,
2013-06-11 13:24:00,74.9,65.3,29.85,West,281,11.5,11.5,72,0.00,CLR,,0.00,1078.0,WeatherDisplay:10.37,2013-06-11 17:24:00,
2013-06-11 13:29:00,75.1,65.9,29.85,WNW,290,13.8,13.8,73,0.00,CLR,,0.00,564.0,WeatherDisplay:10.37,2013-06-11 17:29:00,
2013-06-11 13:34:00,74.6,65.0,29.85,WNW,303,8.1,8.1,72,0.00,FEW,,0.00,311.0,WeatherDisplay:10.37,2013-06-11 17:34:00,
2013-06-11 13:39:00,74.1,64.9,29.85,WNW,285,11.5,11.5,73,0.00,FEW,,0.00,336.0,WeatherDisplay:10.37,2013-06-11 17:39:00,
2013-06-11 13:44:00,73.9,65.1,29.85,NW,310,6.9,6.9,74,0.00,CLR,,0.00,533.0,WeatherDisplay:10.37,2013-06-11 17:44:00,
2013-06-11 13:49:00,74.3,65.9,29.84,West,271,5.0,5.0,75,0.00,CLR,,0.00,601.0,WeatherDisplay:10.37,2013-06-11 17:49:00,
2013-06-11 13:54:00,74.7,65.9,29.84,NW,314,9.2,9.2,74,0.00,CLR,,0.00,374.0,WeatherDisplay:10.37,2013-06-11 17:54:00,
2013-06-11 13:59:00,74.6,65.0,29.84,WNW,282,4.6,4.6,72,0.00,FEW,,0.00,360.0,WeatherDisplay:10.37,2013-06-11 17:59:00,
2013-06-11 14:04:00,74.3,65.5,29.85,West,259,5.8,5.8,74,0.00,SCT,,0.00,334.0,WeatherDisplay:10.37,2013-06-11 18:04:00,
2013-06-11 14:09:00,74.1,64.5,29.84,SW,215,6.9,6.9,72,0.00,SCT,,0.00,348.0,WeatherDisplay:10.37,2013-06-11 18:09:00,
2013-06-11 14:14:00,73.9,65.1,29.84,WNW,292,7.0,7.0,74,0.00,FEW,,0.00,408.0,WeatherDisplay:10.37,2013-06-11 18:14:00,
2013-06-11 14:19:00,73.9,65.1,29.84,WNW,293,5.0,5.0,74,0.00,SCT,,0.00,404.0,WeatherDisplay:10.37,2013-06-11 18:19:00,
2013-06-11 14:24:00,74.1,65.3,29.83,NW,316,5.8,5.8,74,0.00,FEW,,0.00,468.0,WeatherDisplay:10.37,2013-06-11 18:24:00,
2013-06-11 14:29:00,74.3,65.5,29.83,WNW,298,6.0,6.0,74,0.00,CLR,,0.00,545.0,WeatherDisplay:10.37,2013-06-11 18:29:00,
2013-06-11 14:34:00,74.8,66.3,29.83,NW,323,8.1,8.1,75,0.00,CLR,,0.00,970.0,WeatherDisplay:10.37,2013-06-11 18:34:00,
2013-06-11 14:39:00,75.3,66.0,29.84,West,271,8.1,8.1,73,0.00,CLR,,0.00,807.0,WeatherDisplay:10.37,2013-06-11 18:39:00,
2013-06-11 14:44:00,75.5,66.6,29.83,WSW,258,9.2,9.2,74,0.00,CLR,,0.00,926.0,WeatherDisplay:10.37,2013-06-11 18:44:00,
2013-06-11 14:49:00,75.9,65.0,29.83,WSW,242,8.1,8.1,69,0.00,CLR,,0.00,911.0,WeatherDisplay:10.37,2013-06-11 18:49:00,
2013-06-11 14:54:00,75.9,65.0,29.83,NW,309,5.0,5.0,69,0.00,CLR,,0.00,921.0,WeatherDisplay:10.37,2013-06-11 18:54:00,
2013-06-11 14:59:00,76.2,65.3,29.83,NW,308,6.0,6.0,69,0.00,CLR,,0.00,926.0,WeatherDisplay:10.37,2013-06-11 18:59:00,
2013-06-11 15:04:00,76.4,65.5,29.83,SW,230,10.4,10.4,69,0.00,CLR,,0.00,918.0,WeatherDisplay:10.37,2013-06-11 19:04:00,
2013-06-11 15:09:00,76.7,66.2,29.83,West,268,6.9,6.9,70,0.00,CLR,,0.00,954.0,WeatherDisplay:10.37,2013-06-11 19:09:00,
2013-06-11 15:14:00,77.0,66.5,29.83,WNW,300,6.9,6.9,70,0.00,CLR,,0.00,1046.0,WeatherDisplay:10.37,2013-06-11 19:14:00,
2013-06-11 15:19:00,77.0,65.6,29.83,West,278,6.9,6.9,68,0.00,BKN,,0.00,278.0,WeatherDisplay:10.37,2013-06-11 19:19:00,
2013-06-11 15:24:00,77.1,65.7,29.83,NW,308,8.1,8.1,68,0.00,CLR,,0.00,963.0,WeatherDisplay:10.37,2013-06-11 19:24:00,
2013-06-11 15:29:00,77.4,66.0,29.83,SW,227,6.9,6.9,68,0.00,BKN,,0.00,330.0,WeatherDisplay:10.37,2013-06-11 19:29:00,
2013-06-11 15:34:00,77.5,66.1,29.83,West,267,8.1,8.1,68,0.00,SCT,,0.00,954.0,WeatherDisplay:10.37,2013-06-11 19:34:00,
2013-06-11 15:39:00,77.2,65.0,29.83,WSW,247,9.2,9.2,66,0.00,BKN,,0.00,316.0,WeatherDisplay:10.37,2013-06-11 19:39:00,
2013-06-11 15:44:00,76.7,65.8,29.82,WSW,240,11.5,11.5,69,0.00,BKN,,0.00,431.0,WeatherDisplay:10.37,2013-06-11 19:44:00,
2013-06-11 15:49:00,76.8,66.7,29.82,SW,233,11.5,11.5,71,0.00,FEW,,0.00,661.0,WeatherDisplay:10.37,2013-06-11 19:49:00,
2013-06-11 15:54:00,76.8,66.3,29.82,SW,225,4.6,4.6,70,0.00,SCT,,0.00,591.0,WeatherDisplay:10.37,2013-06-11 19:54:00,
2013-06-11 15:59:00,77.2,65.8,29.82,WSW,239,10.4,10.4,68,0.00,FEW,,0.00,698.0,WeatherDisplay:10.37,2013-06-11 19:59:00,
2013-06-11 16:04:00,77.5,66.5,29.82,NW,313,7.0,7.0,69,0.00,BKN,,0.00,394.0,WeatherDisplay:10.37,2013-06-11 20:04:00,
2013-06-11 16:09:00,77.6,66.6,29.82,West,266,5.0,5.0,69,0.00,BKN,,0.00,443.0,WeatherDisplay:10.37,2013-06-11 20:09:00,
2013-06-11 16:14:00,77.8,66.8,29.82,WSW,251,9.2,9.2,69,0.00,SCT,,0.00,635.0,WeatherDisplay:10.37,2013-06-11 20:14:00,
2013-06-11 16:19:00,78.0,67.0,29.82,NW,313,8.1,8.1,69,0.00,FEW,,0.00,735.0,WeatherDisplay:10.37,2013-06-11 20:19:00,
2013-06-11 16:24:00,78.2,66.8,29.82,WSW,251,11.0,11.0,68,0.00,SCT,,0.00,638.0,WeatherDisplay:10.37,2013-06-11 20:24:00,
2013-06-11 16:29:00,78.4,67.8,29.82,NW,319,6.9,6.9,70,0.00,FEW,,0.00,782.0,WeatherDisplay:10.37,2013-06-11 20:29:00,
2013-06-11 16:34:00,78.3,66.9,29.82,West,271,10.4,10.4,68,0.00,BKN,,0.00,318.0,WeatherDisplay:10.37,2013-06-11 20:34:00,
2013-06-11 16:39:00,77.9,66.1,29.82,WNW,298,8.1,8.1,67,0.00,SCT,,0.00,575.0,WeatherDisplay:10.37,2013-06-11 20:39:00,
2013-06-11 16:44:00,78.1,67.1,29.81,WNW,289,6.0,6.0,69,0.00,FEW,,0.00,756.0,WeatherDisplay:10.37,2013-06-11 20:44:00,
2013-06-11 16:49:00,77.9,66.9,29.81,SW,223,9.2,9.2,69,0.00,BKN,,0.00,534.0,WeatherDisplay:10.37,2013-06-11 20:49:00,
2013-06-11 16:54:00,77.9,66.1,29.81,SSW,192,10.4,10.4,67,0.00,BKN,,0.00,381.0,WeatherDisplay:10.37,2013-06-11 20:54:00,
2013-06-11 16:59:00,78.0,66.6,29.81,West,273,6.0,6.0,68,0.00,BKN,,0.00,290.0,WeatherDisplay:10.37,2013-06-11 20:59:00,
2013-06-11 17:04:00,77.9,66.5,29.81,SW,232,8.1,8.1,68,0.00,BKN,,0.00,287.0,WeatherDisplay:10.37,2013-06-11 21:04:00,
2013-06-11 17:09:00,78.0,66.6,29.81,NNW,333,8.1,8.1,68,0.00,BKN,,0.00,374.0,WeatherDisplay:10.37,2013-06-11 21:09:00,
2013-06-11 17:14:00,78.3,67.3,29.81,SW,232,5.0,5.0,69,0.00,BKN,,0.00,403.0,WeatherDisplay:10.37,2013-06-11 21:14:00,
2013-06-11 17:19:00,78.7,66.4,29.81,West,261,4.6,4.6,66,0.00,BKN,,0.00,427.0,WeatherDisplay:10.37,2013-06-11 21:19:00,
2013-06-11 17:24:00,78.7,65.9,29.81,North,355,7.0,7.0,65,0.00,BKN,,0.00,279.0,WeatherDisplay:10.37,2013-06-11 21:24:00,
2013-06-11 17:29:00,78.5,66.2,29.81,WNW,286,9.2,9.2,66,0.00,BKN,,0.00,178.0,WeatherDisplay:10.37,2013-06-11 21:29:00,
2013-06-11 17:34:00,78.0,65.7,29.81,WSW,254,6.9,6.9,66,0.00,BKN,,0.00,186.0,WeatherDisplay:10.37,2013-06-11 21:34:00,
2013-06-11 17:39:00,77.7,65.9,29.81,NW,325,3.5,3.5,67,0.00,BKN,,0.00,160.0,WeatherDisplay:10.37,2013-06-11 21:39:00,
2013-06-11 17:44:00,77.5,65.2,29.81,West,273,8.1,8.1,66,0.00,BKN,,0.00,151.0,WeatherDisplay:10.37,2013-06-11 21:44:00,
2013-06-11 17:49:00,77.3,65.9,29.81,WSW,252,3.5,3.5,68,0.00,BKN,,0.00,90.0,WeatherDisplay:10.37,2013-06-11 21:49:00,
2013-06-11 17:54:00,77.1,66.1,29.81,West,271,5.0,5.0,69,0.00,BKN,,0.00,69.0,WeatherDisplay:10.37,2013-06-11 21:54:00,
2013-06-11 17:59:00,76.8,65.9,29.81,WNW,284,10.4,10.4,69,0.00,BKN,,0.00,62.0,WeatherDisplay:10.37,2013-06-11 21:59:00,
2013-06-11 18:04:00,76.5,65.6,29.81,WSW,250,4.6,4.6,69,0.00,BKN,,0.00,113.0,WeatherDisplay:10.37,2013-06-11 22:04:00,
2013-06-11 18:09:00,76.4,65.9,29.81,WNW,286,4.6,4.6,70,0.00,BKN,,0.00,65.0,WeatherDisplay:10.37,2013-06-11 22:09:00,
2013-06-11 18:14:00,76.3,65.8,29.80,West,271,3.5,3.5,70,0.00,BKN,,0.00,84.0,WeatherDisplay:10.37,2013-06-11 22:14:00,
2013-06-11 18:19:00,76.3,66.6,29.79,West,260,2.3,2.3,72,0.00,BKN,,0.00,127.0,WeatherDisplay:10.37,2013-06-11 22:19:00,
2013-06-11 18:24:00,76.5,66.4,29.79,WSW,242,3.5,3.5,71,0.00,BKN,,0.00,297.0,WeatherDisplay:10.37,2013-06-11 22:24:00,
2013-06-11 18:29:00,76.7,66.2,29.78,WSW,242,2.3,2.3,70,0.00,BKN,,0.00,169.0,WeatherDisplay:10.37,2013-06-11 22:29:00,
2013-06-11 18:34:00,76.9,66.8,29.79,West,262,2.0,2.0,71,0.00,BKN,,0.00,132.0,WeatherDisplay:10.37,2013-06-11 22:34:00,
2013-06-11 18:39:00,77.0,66.9,29.78,SW,228,3.5,3.5,71,0.00,BKN,,0.00,248.0,WeatherDisplay:10.37,2013-06-11 22:39:00,
2013-06-11 18:44:00,77.3,66.7,29.79,West,275,2.3,0.0,70,0.00,BKN,,0.00,169.0,WeatherDisplay:10.37,2013-06-11 22:44:00,
2013-06-11 18:50:00,77.3,66.7,29.79,West,275,3.5,3.5,70,0.00,BKN,,0.00,135.0,WeatherDisplay:10.37,2013-06-11 22:50:00,
2013-06-11 18:55:00,77.3,66.7,29.79,West,273,3.5,3.5,70,0.00,BKN,,0.00,148.0,WeatherDisplay:10.37,2013-06-11 22:55:00,
2013-06-11 19:00:00,77.2,66.2,29.79,WSW,246,4.6,4.6,69,0.00,BKN,,0.00,114.0,WeatherDisplay:10.37,2013-06-11 23:00:00,
2013-06-11 19:05:00,77.1,66.6,29.79,WSW,247,2.3,2.3,70,0.00,BKN,,0.00,91.0,WeatherDisplay:10.37,2013-06-11 23:05:00,
2013-06-11 19:10:00,77.0,66.5,29.79,WSW,247,2.3,2.3,70,0.00,BKN,,0.00,116.0,WeatherDisplay:10.37,2013-06-11 23:10:00,
2013-06-11 19:15:00,77.0,66.9,29.79,WSW,247,2.3,2.3,71,0.00,BKN,,0.00,308.0,WeatherDisplay:10.37,2013-06-11 23:15:00,
2013-06-11 19:20:00,77.3,67.2,29.79,WSW,257,5.8,5.8,71,0.00,BKN,,0.00,313.0,WeatherDisplay:10.37,2013-06-11 23:20:00,
2013-06-11 19:25:00,77.5,66.9,29.79,WSW,242,3.5,3.5,70,0.00,BKN,,0.00,167.0,WeatherDisplay:10.37,2013-06-11 23:25:00,
2013-06-11 19:30:00,77.6,66.6,29.79,West,259,1.1,1.1,69,0.00,BKN,,0.00,163.0,WeatherDisplay:10.37,2013-06-11 23:30:00,
2013-06-11 19:35:00,77.5,67.4,29.79,WSW,258,3.5,3.5,71,0.00,BKN,,0.00,141.0,WeatherDisplay:10.37,2013-06-11 23:35:00,
2013-06-11 19:40:00,77.4,66.4,29.79,WSW,254,2.3,2.3,69,0.00,BKN,,0.00,98.0,WeatherDisplay:10.37,2013-06-11 23:40:00,
2013-06-11 19:45:00,77.3,66.3,29.79,WSW,254,3.5,3.5,69,0.00,BKN,,0.00,90.0,WeatherDisplay:10.37,2013-06-11 23:45:00,
2013-06-11 19:50:00,77.2,66.7,29.79,WSW,251,2.3,2.3,70,0.00,BKN,,0.00,74.0,WeatherDisplay:10.37,2013-06-11 23:50:00,
2013-06-11 19:55:00,77.0,66.5,29.79,WSW,252,3.5,3.5,70,0.00,BKN,,0.00,69.0,WeatherDisplay:10.37,2013-06-11 23:55:00,
2013-06-11 20:00:00,76.8,66.7,29.79,WSW,251,3.5,3.5,71,0.00,OVC,,0.00,54.0,WeatherDisplay:10.37,2013-06-12 00:00:00,
2013-06-11 20:05:00,76.7,67.0,29.79,WSW,251,2.3,2.3,72,0.00,CLR,,0.00,53.0,WeatherDisplay:10.37,2013-06-12 00:05:00,
2013-06-11 20:10:00,76.5,66.8,29.79,WSW,251,1.1,0.0,72,0.00,CLR,,0.00,35.0,WeatherDisplay:10.37,2013-06-12 00:10:00,
2013-06-11 20:15:00,76.4,67.1,29.79,WSW,251,1.1,0.0,73,0.00,CLR,,0.00,39.0,WeatherDisplay:10.37,2013-06-12 00:15:00,
2013-06-11 20:20:00,76.2,67.3,29.79,WSW,251,0.0,0.6,74,0.00,CLR,,0.00,28.0,WeatherDisplay:10.37,2013-06-12 00:20:00,
2013-06-11 20:25:00,76.1,67.2,29.79,WSW,251,0.0,1.0,74,0.00,CLR,,0.00,25.0,WeatherDisplay:10.37,2013-06-12 00:25:00,
2013-06-11 20:30:00,75.9,67.4,29.80,WSW,251,0.0,1.0,75,0.00,CLR,,0.00,35.0,WeatherDisplay:10.37,2013-06-12 00:30:00,
2013-06-11 20:35:00,75.7,67.6,29.80,WSW,251,0.0,0.0,76,0.00,CLR,,0.00,40.0,WeatherDisplay:10.37,2013-06-12 00:35:00,
2013-06-11 20:40:00,75.5,67.4,29.80,WSW,251,0.0,0.0,76,0.00,CLR,,0.00,30.0,WeatherDisplay:10.37,2013-06-12 00:40:00,
2013-06-11 20:45:00,75.4,68.1,29.80,WSW,251,0.0,0.0,78,0.00,CLR,,0.00,19.0,WeatherDisplay:10.37,2013-06-12 00:45:00,
2013-06-11 20:50:00,75.1,68.1,29.80,WSW,251,0.0,0.0,79,0.00,CLR,,0.00,9.0,WeatherDisplay:10.37,2013-06-12 00:50:00,
2013-06-11 20:55:00,74.8,67.8,29.80,WSW,251,0.0,0.0,79,0.00,CLR,,0.00,5.0,WeatherDisplay:10.37,2013-06-12 00:55:00,
2013-06-11 21:00:00,74.4,67.5,29.80,WSW,251,0.0,0.0,79,0.00,CLR,,0.00,0.0,WeatherDisplay:10.37,2013-06-12 01:00:00,
2013-06-11 21:05:00,74.0,67.4,29.80,WSW,251,0.0,0.0,80,0.00,CLR,,0.00,0.0,WeatherDisplay:10.37,2013-06-12 01:05:00,
2013-06-11 21:10:00,73.6,67.4,29.80,WSW,251,0.0,0.0,81,0.00,CLR,,0.00,0.0,WeatherDisplay:10.37,2013-06-12 01:10:00,
2013-06-11 21:15:00,73.1,67.3,29.80,WSW,251,0.0,0.0,82,0.00,CLR,,0.00,0.0,WeatherDisplay:10.37,2013-06-12 01:15:00,
2013-06-11 21:20:00,72.6,67.1,29.80,WSW,251,0.0,0.0,83,0.00,CLR,,0.00,0.0,WeatherDisplay:10.37,2013-06-12 01:20:00,
2013-06-11 21:25:00,72.4,67.3,29.80,WSW,251,0.0,0.0,84,0.00,CLR,,0.00,0.0,WeatherDisplay:10.37,2013-06-12 01:25:00,
2013-06-11 21:30:00,72.2,67.1,29.80,WSW,251,1.1,0.0,84,0.00,CLR,,0.00,0.0,WeatherDisplay:10.37,2013-06-12 01:30:00,
2013-06-11 21:35:00,72.1,67.0,29.80,WSW,251,0.0,0.0,84,0.00,CLR,,0.00,0.0,WeatherDisplay:10.37,2013-06-12 01:35:00,
2013-06-11 21:40:00,71.9,67.1,29.80,WSW,251,0.0,0.0,85,0.00,CLR,,0.00,0.0,WeatherDisplay:10.37,2013-06-12 01:40:00,
2013-06-11 21:45:00,71.7,66.9,29.80,WSW,250,3.5,3.5,85,0.00,CLR,,0.00,0.0,WeatherDisplay:10.37,2013-06-12 01:45:00,
2013-06-11 21:50:00,71.6,66.5,29.81,West,271,4.0,4.0,84,0.00,CLR,,0.00,0.0,WeatherDisplay:10.37,2013-06-12 01:50:00,
2013-06-11 21:55:00,71.5,66.4,29.82,WNW,286,4.6,4.6,84,0.00,CLR,,0.00,0.0,WeatherDisplay:10.37,2013-06-12 01:55:00,
2013-06-11 22:00:00,71.5,66.4,29.82,West,275,2.3,2.3,84,0.00,CLR,,0.00,0.0,WeatherDisplay:10.37,2013-06-12 02:00:00,
2013-06-11 22:05:00,71.5,66.4,29.82,West,275,1.1,1.1,84,0.00,CLR,,0.00,0.0,WeatherDisplay:10.37,2013-06-12 02:05:00,
2013-06-11 22:10:00,71.5,66.4,29.81,West,275,1.1,1.1,84,0.00,CLR,,0.00,0.0,WeatherDisplay:10.37,2013-06-12 02:10:00,
2013-06-11 22:15:00,71.5,66.4,29.82,West,275,0.0,0.0,84,0.00,CLR,,0.00,0.0,WeatherDisplay:10.37,2013-06-12 02:15:00,
2013-06-11 22:20:00,71.4,66.3,29.82,West,275,0.0,0.0,84,0.00,CLR,,0.00,0.0,WeatherDisplay:10.37,2013-06-12 02:20:00,
2013-06-11 22:25:00,71.2,66.1,29.82,West,275,0.0,0.0,84,0.00,CLR,,0.00,0.0,WeatherDisplay:10.37,2013-06-12 02:25:00,
2013-06-11 22:30:00,71.0,66.3,29.82,West,275,1.1,1.1,85,0.00,CLR,,0.00,0.0,WeatherDisplay:10.37,2013-06-12 02:30:00,
2013-06-11 22:35:00,70.8,66.1,29.82,West,281,3.0,3.0,85,0.00,CLR,,0.00,0.0,WeatherDisplay:10.37,2013-06-12 02:35:00,
2013-06-11 22:40:00,70.6,65.9,29.82,West,281,0.0,0.0,85,0.00,CLR,,0.00,0.0,WeatherDisplay:10.37,2013-06-12 02:40:00,
2013-06-11 22:45:00,70.4,66.0,29.82,West,281,3.5,3.5,86,0.00,CLR,,0.00,0.0,WeatherDisplay:10.37,2013-06-12 02:45:00,
2013-06-11 22:50:00,70.2,66.1,29.82,West,281,1.1,1.1,87,0.00,CLR,,0.00,0.0,WeatherDisplay:10.37,2013-06-12 02:50:00,
2013-06-11 22:55:00,70.1,66.0,29.83,West,281,1.1,1.1,87,0.00,CLR,,0.00,0.0,WeatherDisplay:10.37,2013-06-12 02:55:00,
2013-06-11 23:00:00,69.8,65.8,29.83,West,279,1.1,1.1,87,0.00,CLR,,0.00,0.0,WeatherDisplay:10.37,2013-06-12 03:00:00,
2013-06-11 23:05:00,69.6,65.9,29.83,West,279,2.3,2.3,88,0.00,CLR,,0.00,0.0,WeatherDisplay:10.37,2013-06-12 03:05:00,
2013-06-11 23:10:00,69.4,65.4,29.82,West,279,1.1,1.1,87,0.00,CLR,,0.00,0.0,WeatherDisplay:10.37,2013-06-12 03:10:00,
2013-06-11 23:15:00,69.2,65.5,29.83,West,277,2.3,2.3,88,0.00,CLR,,0.00,0.0,WeatherDisplay:10.37,2013-06-12 03:15:00,
2013-06-11 23:20:00,69.2,65.5,29.82,West,273,4.0,4.0,88,0.00,CLR,,0.00,0.0,WeatherDisplay:10.37,2013-06-12 03:20:00,
2013-06-11 23:25:00,69.1,65.1,29.82,West,281,2.3,2.3,87,0.00,CLR,,0.00,0.0,WeatherDisplay:10.37,2013-06-12 03:25:00,
2013-06-11 23:30:00,69.0,65.3,29.83,WNW,284,4.0,4.0,88,0.00,CLR,,0.00,0.0,WeatherDisplay:10.37,2013-06-12 03:30:00,
2013-06-11 23:35:00,68.9,64.9,29.83,West,270,3.5,3.5,87,0.00,CLR,,0.00,0.0,WeatherDisplay:10.37,2013-06-12 03:35:00,
2013-06-11 23:40:00,68.9,64.9,29.83,West,268,5.8,5.8,87,0.00,CLR,,0.00,0.0,WeatherDisplay:10.37,2013-06-12 03:40:00,
2013-06-11 23:45:00,68.8,64.4,29.83,WNW,295,6.9,6.9,86,0.00,CLR,,0.00,0.0,WeatherDisplay:10.37,2013-06-12 03:45:00,
2013-06-11 23:50:00,68.9,64.5,29.83,NW,305,3.5,3.5,86,0.00,CLR,,0.00,0.0,WeatherDisplay:10.37,2013-06-12 03:50:00,
2013-06-11 23:55:00,69.0,64.3,29.83,WNW,294,5.8,5.8,85,0.00,CLR,,0.00,0.0,WeatherDisplay:10.37,2013-06-12 03:55:00,